| time (UTC) | temp F | wind direction | speed knots | gust knots | rain 1hr in | rain 24hr in | rain mn in | humidity % | barometer mb |
| 20260508030042 | 76 | 14 | 0.0 | 0.0 | 0.45 | 0.98 | 0.98 | 1 | 1009.4 |
| 20260508024544 | 77 | 15 | 0.0 | 0.0 | 0.45 | 0.89 | 0.87 | 1 | 1009.6 |
| 20260508023041 | 77 | 53 | 0.0 | 0.0 | 0.36 | 0.75 | 0.73 | 1 | 1009.2 |
| 20260508021541 | 76 | 73 | 0.0 | 0.9 | 0.36 | 0.70 | 0.68 | 1 | 1009.1 |
| 20260508020046 | 77 | 79 | 0.0 | 0.0 | 0.24 | 0.55 | 0.53 | 1 | 1008.8 |
| 20260508014640 | 77 | 78 | 0.0 | 0.9 | 0.34 | 0.48 | 0.43 | 1 | 1008.3 |
| 20260508013038 | 77 | 55 | 0.0 | 0.0 | 0.35 | 0.41 | 0.36 | 1 | 1007.9 |
| 20260508011543 | 78 | 30 | 0.0 | 0.9 | 0.31 | 0.37 | 0.32 | 1 | 1007.9 |
| 20260508010031 | 79 | 44 | 0.0 | 0.9 | 0.28 | 0.34 | 0.28 | 1 | 1007.8 |
| 20260508004532 | 81 | 38 | 0.0 | 9.6 | 0.06 | 0.12 | 0.07 | 1 | 1007.2 |
| 20260508003023 | 82 | 55 | 0.0 | 0.0 | 0.00 | 0.06 | 0.01 | 1 | 1007.0 |
| 20260508001520 | 85 | 77 | 0.0 | 0.0 | 0.00 | 0.06 | 0.01 | 21 | 1006.7 |
| 20260508000014 | 86 | 78 | 0.0 | 0.0 | 0.00 | 0.06 | 0.01 | 23 | 1006.3 |
| 20260507234510 | 86 | 78 | 0.0 | 0.0 | 0.00 | 0.06 | 0.01 | 25 | 1006.1 |
| 20260507233014 | 86 | 78 | 0.0 | 0.0 | 0.00 | 0.06 | 0.01 | 27 | 1006.0 |
| 20260507231501 | 86 | 78 | 0.0 | 0.0 | 0.00 | 0.06 | 0.01 | 31 | 1005.9 |
| 20260507230056 | 86 | 78 | 0.0 | 0.0 | 0.00 | 0.06 | 0.01 | 41 | 1005.7 |
| 20260507224557 | 87 | 78 | 0.0 | 0.0 | 0.00 | 0.06 | 0.01 | 47 | 1005.5 |
| 20260507223047 | 87 | 167 | 0.0 | 0.0 | 0.00 | 0.06 | 0.01 | 52 | 1005.3 |
| 20260507221543 | 87 | 168 | 0.0 | 0.0 | 0.00 | 0.06 | 0.01 | 51 | 1005.3 |
| 20260507220038 | 87 | 168 | 0.0 | 0.0 | 0.00 | 0.06 | 0.01 | 50 | 1005.2 |
| 20260507214533 | 87 | 169 | 0.0 | 0.0 | 0.00 | 0.06 | 0.01 | 51 | 1005.2 |
| 20260507213034 | 87 | 176 | 0.0 | 0.0 | 0.00 | 0.06 | 0.01 | 47 | 1005.2 |
| 20260507211625 | 87 | 175 | 0.0 | 0.0 | 0.00 | 0.06 | 0.01 | 46 | 1005.2 |
| 20260507210020 | 87 | 155 | 0.0 | 0.0 | 0.00 | 0.06 | 0.01 | 45 | 1005.4 |
| 20260507204520 | 86 | 145 | 0.0 | 0.0 | 0.00 | 0.06 | 0.01 | 49 | 1005.5 |
| 20260507203012 | 87 | 143 | 0.0 | 0.0 | 0.00 | 0.06 | 0.01 | 48 | 1005.5 |
| 20260507201514 | 87 | 165 | 0.0 | 0.0 | 0.00 | 0.06 | 0.01 | 50 | 1005.7 |
| 20260507194620 | 87 | 201 | 0.0 | 0.0 | 0.00 | 0.06 | 0.01 | 45 | 1006.0 |
| 20260507193055 | 87 | 146 | 0.0 | 0.0 | 0.00 | 0.06 | 0.01 | 37 | 1006.2 |
| 20260507191550 | 86 | 142 | 0.0 | 5.2 | 0.00 | 0.06 | 0.01 | 38 | 1006.5 |
| 20260507190052 | 86 | 169 | 0.0 | 0.0 | 0.00 | 0.06 | 0.01 | 35 | 1006.7 |
| 20260507184540 | 87 | 153 | 0.0 | 0.0 | 0.00 | 0.06 | 0.01 | 25 | 1006.8 |
| 20260507183043 | 86 | 221 | 0.0 | 0.0 | 0.00 | 0.06 | 0.01 | 22 | 1007.1 |
| 20260507181531 | 86 | 167 | 0.0 | 0.0 | 0.00 | 0.06 | 0.01 | 29 | 1007.4 |
| 20260507180033 | 86 | 155 | 0.0 | 3.5 | 0.00 | 0.06 | 0.01 | 25 | 1007.7 |
| 20260507174523 | 85 | 173 | 0.0 | 0.0 | 0.00 | 0.06 | 0.01 | 19 | 1008.1 |
| 20260507173029 | 85 | 203 | 0.0 | 0.0 | 0.00 | 0.06 | 0.01 | 13 | 1008.4 |
| 20260507171530 | 84 | 147 | 0.0 | 0.0 | 0.00 | 0.06 | 0.01 | 19 | 1008.6 |
| 20260507170009 | 84 | 217 | 0.0 | 0.0 | 0.00 | 0.06 | 0.01 | 1 | 1008.9 |
| 20260507164505 | 83 | 142 | 0.0 | 0.0 | 0.00 | 0.06 | 0.01 | 1 | 1009.1 |
| 20260507163102 | 83 | 91 | 0.0 | 0.0 | 0.00 | 0.06 | 0.01 | 1 | 1009.3 |
| 20260507161604 | 82 | 128 | 0.0 | 0.0 | 0.00 | 0.06 | 0.01 | 1 | 1009.6 |
| 20260507160052 | 82 | 98 | 0.0 | 0.0 | 0.00 | 0.06 | 0.01 | 1 | 1009.7 |
| 20260507154549 | 81 | 135 | 0.0 | 3.5 | 0.00 | 0.06 | 0.01 | 1 | 1009.7 |
| 20260507153048 | 81 | 116 | 0.0 | 0.0 | 0.00 | 0.06 | 0.01 | 1 | 1009.9 |
| 20260507151538 | 81 | 152 | 0.0 | 0.0 | 0.00 | 0.06 | 0.01 | 1 | 1010.0 |
| 20260507150034 | 80 | 118 | 0.0 | 0.0 | 0.00 | 0.06 | 0.01 | 1 | 1009.9 |
| 20260507144533 | 80 | 126 | 0.0 | 0.0 | 0.00 | 0.06 | 0.01 | 1 | 1009.8 |
| 20260507143025 | 80 | 134 | 0.0 | 0.0 | 0.00 | 0.06 | 0.01 | 1 | 1009.8 |
| 20260507141522 | 79 | 146 | 0.0 | 0.0 | 0.00 | 0.06 | 0.01 | 1 | 1009.7 |
| 20260507140016 | 79 | 133 | 0.0 | 0.0 | 0.00 | 0.06 | 0.01 | 1 | 1009.7 |
| 20260507134517 | 78 | 107 | 0.0 | 0.0 | 0.00 | 0.06 | 0.01 | 1 | 1009.4 |
| 20260507133011 | 78 | 78 | 0.0 | 0.0 | 0.00 | 0.06 | 0.01 | 1 | 1009.2 |
| 20260507131504 | 77 | 40 | 0.0 | 0.0 | 0.00 | 0.06 | 0.01 | 1 | 1009.1 |
| 20260507130057 | 77 | 299 | 0.0 | 0.0 | 0.00 | 0.06 | 0.01 | 1 | 1008.9 |
| 20260507124553 | 77 | 282 | 0.0 | 0.0 | 0.00 | 0.06 | 0.01 | 1 | 1008.8 |
| 20260507123049 | 77 | 282 | 0.0 | 0.0 | 0.00 | 0.06 | 0.01 | 1 | 1008.6 |
| 20260507121545 | 76 | 283 | 0.0 | 0.0 | 0.00 | 0.06 | 0.01 | 1 | 1008.5 |
| 20260507120044 | 76 | 281 | 0.0 | 0.0 | 0.00 | 0.06 | 0.01 | 1 | 1008.3 |
| 20260507114535 | 76 | 281 | 0.0 | 0.0 | 0.00 | 0.06 | 0.01 | 1 | 1008.4 |
| 20260507113040 | 0 | 0.0 | 0.0 | 0.00 | 0.06 | 0.01 | 1008.4 | ||
| 20260507111526 | 158 | 281 | 0.0 | 0.0 | 0.00 | 0.06 | 0.01 | 1 | 1008.6 |
| 20260507110025 | 76 | 281 | 0.0 | 0.0 | 0.00 | 0.06 | 0.01 | 1 | 1008.7 |
| 20260507104517 | 76 | 274 | 0.0 | 0.0 | 0.00 | 0.06 | 0.01 | 1 | 1009.0 |
| 20260507103012 | 76 | 215 | 0.0 | 0.0 | 0.00 | 0.06 | 0.01 | 1 | 1008.9 |
| 20260507101508 | 77 | 213 | 0.0 | 0.0 | 0.00 | 0.06 | 0.01 | 1 | 1009.1 |
| 20260507100003 | 77 | 200 | 0.0 | 0.0 | 0.00 | 0.06 | 0.01 | 1 | 1009.1 |
| 20260507094600 | 77 | 186 | 0.0 | 0.0 | 0.00 | 0.06 | 0.01 | 1 | 1009.1 |
| 20260507093054 | 77 | 194 | 0.0 | 0.0 | 0.00 | 0.06 | 0.01 | 1 | 1009.1 |
| 20260507091550 | 77 | 217 | 0.0 | 0.0 | 0.00 | 0.06 | 0.01 | 1 | 1009.2 |
| 20260507090047 | 78 | 199 | 0.0 | 7.8 | 0.00 | 0.06 | 0.01 | 1 | 1009.2 |
| 20260507084541 | 78 | 178 | 0.0 | 0.0 | 0.01 | 0.06 | 0.01 | 1 | 1009.2 |
| 20260507083037 | 77 | 177 | 0.0 | 0.0 | 0.01 | 0.06 | 0.01 | 1 | 1009.1 |
| 20260507081541 | 78 | 173 | 0.0 | 0.9 | 0.01 | 0.06 | 0.01 | 1 | 1009.1 |
| 20260507080027 | 78 | 165 | 0.0 | 0.0 | 0.01 | 0.06 | 0.01 | 1 | 1009.2 |
| 20260507074529 | 78 | 132 | 0.0 | 0.0 | 0.00 | 0.05 | 0.00 | 1 | 1009.3 |
| 20260507073018 | 78 | 132 | 0.0 | 0.0 | 0.00 | 0.05 | 0.00 | 1 | 1009.3 |
| 20260507071513 | 78 | 138 | 0.0 | 0.0 | 0.00 | 0.05 | 0.00 | 1 | 1009.6 |
| 20260507070012 | 78 | 108 | 0.0 | 0.0 | 0.00 | 0.05 | 0.00 | 1 | 1009.5 |
| 20260507064505 | 78 | 108 | 0.0 | 0.0 | 0.00 | 0.05 | 0.00 | 1 | 1009.5 |
| 20260507063117 | 78 | 108 | 0.0 | 0.0 | 0.00 | 0.05 | 0.00 | 1 | 1009.6 |
| 20260507061557 | 78 | 108 | 0.0 | 0.0 | 0.00 | 0.05 | 0.00 | 1 | 1009.8 |
| 20260507060052 | 78 | 108 | 0.0 | 0.0 | 0.00 | 0.05 | 0.00 | 1 | 1009.8 |
| 20260507054547 | 78 | 108 | 0.0 | 0.0 | 0.00 | 0.05 | 0.00 | 1 | 1009.9 |
| 20260507053044 | 78 | 83 | 0.0 | 0.0 | 0.00 | 0.05 | 0.00 | 1 | 1010.1 |
| 20260507051540 | 78 | 103 | 0.0 | 0.0 | 0.00 | 0.05 | 0.00 | 1 | 1010.3 |
| 20260507050036 | 79 | 86 | 0.0 | 0.0 | 0.00 | 0.05 | 0.00 | 1 | 1010.5 |
| 20260507044533 | 79 | 67 | 0.0 | 0.0 | 0.00 | 0.05 | 0.05 | 1 | 1010.4 |
| 20260507043030 | 78 | 65 | 0.0 | 0.9 | 0.00 | 0.05 | 0.05 | 1 | 1010.5 |
| 20260507041522 | 78 | 27 | 0.0 | 0.0 | 0.00 | 0.05 | 0.05 | 1 | 1010.7 |
| 20260507040017 | 78 | 26 | 0.0 | 0.0 | 0.00 | 0.05 | 0.05 | 1 | 1010.7 |
| 20260507034514 | 78 | 321 | 0.0 | 0.0 | 0.01 | 0.05 | 0.05 | 1 | 1010.6 |
| 20260507033011 | 78 | 321 | 0.0 | 0.0 | 0.01 | 0.05 | 0.05 | 1 | 1010.4 |
| 20260507031503 | 78 | 321 | 0.0 | 0.0 | 0.01 | 0.05 | 0.05 | 1 | 1010.1 |